[[{"header":{"parameterUnit":"m.s-1","parameterCategory":1,"la1":30.2991,"la2":30.254,"lo1":-89.0895,"lo2":-89.0444,"dy":0.0017,"dx":0.0017,"nx":28,"ny":28,"refTime":"2025-08-08T21:00:00:Z","depth":0,"parameterNumber":2,"parameterNumberName":"U-component_of_WINDS"},"data":[0,0,0,0,0,0,0,0,0,0,0,0,0,0,0,0,0,0,0,0,0,0,0,0,0,0,0,0,0,0,0,0,0,0,0,0,0,0,0,0,0,0,0,0,0,0,0,0,0,0,0,0,0,0,0,0,0,0,-0.8964,-0.8964,0,-0.903,-0.9031,-0.9032,-0.8967,-0.8965,-0.8962,-0.896,-0.9038,-0.9042,-0.9047,0,0,0,0,0,0,0,0,0,0,0,0,0,-0.8789,-0.8792,-0.8964,-0.8964,-0.8965,-0.903,-0.9031,-0.9032,-0.8968,-0.8964,-0.8961,-0.8958,-0.9036,-0.9042,-0.9047,0,0,0,0,0,0,0,0,0,0,0,0,0,-0.8861,-0.8793,-0.8963,-0.8941,-0.8939,-0.903,-0.9031,-0.9032,-0.8968,-0.8964,-0.8961,-0.8957,-0.9035,-0.9041,-0.9048,-0.9167,0,0,-0.9069,-0.9071,0,0,0,0,0,0,0,0,-0.8857,-0.8868,-0.8943,-0.8942,-0.8941,-0.8986,-0.8998,-0.9078,-0.8969,-0.8958,-0.8959,-0.8955,-0.9025,-0.9032,-0.9053,-0.9171,-0.9174,-0.9069,-0.9073,-0.9076,-0.9078,0,0,0,0,0,0,0,-0.8852,-0.8865,-0.899,-0.8944,-0.8943,-0.893,-0.8936,-0.9013,-0.9013,-0.8958,-0.8954,-0.8962,-0.9023,-0.9047,-0.9055,-0.9176,-0.9069,-0.9075,-0.9079,-0.9082,-0.9396,-0.94,0,0,0,0,0,0,-0.8848,-0.8861,-0.8988,-0.8992,-0.8888,-0.8936,-0.8943,-0.8976,-0.9011,-0.9013,-0.8965,-0.8959,-0.9037,-0.9047,-0.9057,-0.9201,-0.9076,-0.9082,-0.9086,-0.9391,-0.9397,-0.9401,0,0,0,0,0,0,-0.8845,-0.886,-0.8985,-0.8925,-0.894,-0.8943,-0.8981,-0.8979,-0.9003,-0.9016,-0.9017,-0.8989,-0.9035,-0.9048,-0.914,-0.9203,-0.9085,-0.9092,-0.9386,-0.9393,-0.9399,-0.9489,0,0,0,0,0,0,-0.884,-0.8859,-0.8903,-0.8926,-0.8943,-0.9065,-0.8985,-0.8983,-0.9013,-0.9005,-0.9039,-0.9041,-0.9033,-0.913,-0.9147,-0.921,-0.9097,-0.9381,-0.9389,-0.9397,-0.9481,-0.9498,-0.9512,0,0,0,0,0,-0.8834,-0.8928,-0.8906,-0.8922,-0.8998,-0.9069,-0.9079,-0.9065,-0.9018,-0.9064,-0.9072,-0.904,-0.9192,-0.914,-0.9158,-0.9225,-0.9377,-0.9387,-0.9396,-0.9474,-0.9494,-0.9512,0,0,0,0,0,0,-0.8917,-0.8931,-0.8907,-0.901,-0.9038,-0.9058,-0.9115,-0.9087,-0.9132,-0.9123,-0.9106,-0.9114,-0.9212,-0.9227,-0.9169,-0.9342,-0.9277,-0.9291,-0.933,-0.935,-0.9366,-0.9363,-0.9102,0,0,0,0,0,-0.8946,-0.9,-0.901,-0.9101,-0.9116,-0.9113,-0.9143,-0.9129,-0.9159,-0.9172,-0.9187,-0.922,-0.9275,-0.9313,-0.9364,-0.948,-0.9489,-0.9535,-0.9551,-0.9564,-0.9578,-0.9642,-0.9664,-0.9433,-0.9433,-0.9433,0,0,-0.901,-0.9024,-0.906,-0.9118,-0.9138,-0.9197,-0.9124,-0.9189,-0.9234,-0.9183,-0.9271,-0.9283,-0.9318,-0.9424,-0.9471,-0.9439,-0.9642,-0.9576,-0.9586,-0.9593,-0.9654,-0.9676,-0.9696,-0.944,-0.9438,-0.9437,0,0,-0.9156,-0.917,-0.9248,-0.9268,-0.9298,-0.9295,-0.9313,-0.9336,-0.9341,-0.9428,-0.9391,-0.9444,-0.9539,-0.9567,-0.9593,-0.9745,-0.9718,-0.9763,-0.9848,-0.9911,-0.993,-0.9946,-1.0004,-1.0024,-0.9775,-0.9775,-0.9775,0,-0.9232,-0.9316,-0.9292,-0.936,-0.9388,-0.9339,-0.9419,-0.9441,-0.9488,-0.951,-0.9471,-0.9589,-0.961,-0.9721,-0.9758,-0.978,-0.9803,-0.9762,-0.9928,-0.9944,-0.9959,-1.0014,-1.0035,-0.9781,-0.978,-0.978,-0.9779,0,-0.941,-0.9469,-0.9528,-0.9571,-0.9605,-0.9678,-0.9668,-0.9705,-0.9687,-0.9688,-0.9778,-0.98,-0.9855,-0.988,-0.9864,-0.999,-0.9969,-0.993,-0.9865,-0.9987,-1.0039,-1.0059,-0.9789,-0.9787,-0.9785,-0.9784,0,0,-0.9617,-0.964,-0.9664,-0.9682,-0.971,-0.9756,-0.9827,-0.9878,-0.9912,-0.9944,-1.0007,-1.0086,-1.0049,-1.0079,-1.0065,-1.012,-1.0243,-1.0074,-1.0074,-1.0108,-1.0386,-1.0419,-1.0443,-1.0222,-1.0225,-1.0229,-1.0384,0,-0.9766,-0.9887,-0.9866,-0.9986,-1.0041,-0.9994,-1.0056,-1.0081,-1.0084,-1.0133,-1.0136,-1.0194,-1.0139,-1.0157,-1.0208,-1.0217,-1.0299,-1.0204,-1.0284,-1.0287,-1.0282,-1.047,-1.0505,-1.0651,-1.0404,-1.0407,-1.0409,0,-0.9959,-0.9995,-1.0119,-1.0136,-1.0159,-1.0215,-1.0259,-1.0305,-1.0333,-1.0331,-1.0362,-1.0338,-1.0412,-1.0341,-1.0445,-1.0381,-1.0412,-1.042,-1.0425,-1.0437,-1.036,-1.0491,-1.0697,-1.0721,-1.044,-1.0438,-1.0436,0,-1.0102,-1.018,-1.0265,-1.0282,-1.0304,-1.0345,-1.0356,-1.0379,-1.0411,-1.0449,-1.047,-1.0518,-1.0546,-1.0585,-1.0575,-1.0524,-1.0683,-1.0611,-1.0687,-1.0688,-1.0728,-1.0726,-1.0946,-1.0739,-1.0738,-1.0738,-1.0738,0,-1.0274,-1.0353,-1.0329,-1.0382,-1.0469,-1.0443,-1.0532,-1.0537,-1.0558,-1.0613,-1.0574,-1.0627,-1.0608,-1.0661,-1.0654,-1.0743,-1.0754,-1.0758,-1.0756,-1.0764,-1.0765,-1.0788,-1.078,-1.0744,-1.0742,-1.0741,-1.074,0,-1.0452,-1.0438,-1.0527,-1.0538,-1.0543,-1.0607,-1.0618,-1.0669,-1.0665,-1.0736,-1.0751,-1.0748,-1.0808,-1.0799,-1.0867,-1.0862,-1.0974,-1.0957,-1.0964,-1.0962,-1.1041,-1.1035,-1.1288,-1.1321,-1.1088,-1.109,-1.1092,0,-1.0565,-1.0624,-1.064,-1.0672,-1.0686,-1.0738,-1.0769,-1.0745,-1.0779,-1.0813,-1.0861,-1.0915,-1.0959,-1.1057,-1.1064,-1.1115,-1.1103,-1.1187,-1.1111,-1.1118,-1.1109,-1.1108,-1.1115,-1.1205,-1.1208,-1.121,-1.1211,0,-1.077,-1.0759,-1.0803,-1.0845,-1.0881,-1.0913,-1.0942,-1.0971,-1.095,-1.0991,-1.1049,-1.1082,-1.1149,-1.1206,-1.1253,-1.1268,-1.1239,-1.1234,-1.1255,-1.1268,-1.1271,-1.1274,-1.1011,-1.123,-1.1228,-1.1227,-1.1226,-1.1225,-1.0922,-1.0973,-1.0991,-1.1041,-1.1059,-1.1086,-1.1134,-1.1135,-1.1182,-1.1232,-1.1215,-1.1283,-1.1308,-1.1368,-1.1388,-1.1442,-1.1412,-1.1442,-1.145,-1.1459,-1.1471,-1.1257,-1.1451,-1.145,-1.1449,-1.1449,-1.1449,0,-1.1129,-1.1137,-1.1183,-1.1222,-1.1262,-1.1222,-1.1252,-1.1289,-1.1348,-1.1372,-1.1414,-1.1482,-1.1535,-1.1543,-1.1595,-1.1638,-1.1625,-1.1653,-1.1652,-1.1657,-1.1493,-1.1471,-1.1662,-1.1662,-1.1662,-1.1662,-1.1662,-1.1661,-1.1242,-1.1325,-1.1316,-1.1409,-1.1417,-1.148,-1.15,-1.1526,-1.1545,-1.1621,-1.1664,-1.1666,-1.1685,-1.1737,-1.1786,-1.1787,-1.181,-1.1844,-1.1841,-1.1689,-1.1668,-1.1648,-1.1628,-1.1848,-1.1848,-1.2001,-1.2002,-1.2003]},{"header":{"parameterUnit":"m.s-1","parameterCategory":1,"la1":30.2991,"la2":30.254,"lo1":-89.0895,"lo2":-89.0444,"dy":0.0017,"dx":0.0017,"nx":28,"ny":28,"refTime":"2025-08-08T21:00:00:Z","depth":0,"parameterNumber":3,"parameterNumberName":"V-component_of_WINDS"},"data":[0,0,0,0,0,0,0,0,0,0,0,0,0,0,0,0,0,0,0,0,0,0,0,0,0,0,0,0,0,0,0,0,0,0,0,0,0,0,0,0,0,0,0,0,0,0,0,0,0,0,0,0,0,0,0,0,0,0,-3.6172,-3.6172,0,-3.6223,-3.6223,-3.6224,-3.6195,-3.6193,-3.6192,-3.6191,-3.6236,-3.6239,-3.6241,0,0,0,0,0,0,0,0,0,0,0,0,0,-3.6043,-3.6046,-3.6172,-3.6172,-3.6173,-3.6223,-3.6223,-3.6224,-3.6195,-3.6193,-3.6192,-3.619,-3.6236,-3.6239,-3.6242,0,0,0,0,0,0,0,0,0,0,0,0,0,-3.6097,-3.6046,-3.6172,-3.6165,-3.6165,-3.6222,-3.6223,-3.6224,-3.6195,-3.6193,-3.6191,-3.6189,-3.6235,-3.6238,-3.6242,-3.6307,0,0,-3.6254,-3.6255,0,0,0,0,0,0,0,0,-3.6094,-3.6102,-3.6165,-3.6165,-3.6165,-3.62,-3.6195,-3.6252,-3.6196,-3.6183,-3.6191,-3.6188,-3.6226,-3.623,-3.6244,-3.631,-3.6312,-3.6254,-3.6256,-3.6258,-3.6259,0,0,0,0,0,0,0,-3.609,-3.6099,-3.6192,-3.6166,-3.6166,-3.6157,-3.6162,-3.6205,-3.6215,-3.6184,-3.6182,-3.6189,-3.6225,-3.624,-3.6245,-3.6312,-3.6254,-3.6257,-3.6259,-3.6261,-3.6433,-3.6435,0,0,0,0,0,0,-3.6088,-3.6096,-3.619,-3.6193,-3.6124,-3.6161,-3.6167,-3.6191,-3.6215,-3.6217,-3.6191,-3.6188,-3.6235,-3.624,-3.6246,-3.6324,-3.6258,-3.6261,-3.6263,-3.6431,-3.6433,-3.6436,0,0,0,0,0,0,-3.6085,-3.6096,-3.6188,-3.6144,-3.6155,-3.6166,-3.6193,-3.6193,-3.6208,-3.622,-3.6221,-3.6205,-3.6234,-3.6241,-3.6293,-3.6325,-3.6263,-3.6266,-3.6428,-3.6432,-3.6435,-3.6479,0,0,0,0,0,0,-3.6082,-3.6096,-3.6122,-3.6145,-3.6158,-3.6235,-3.6195,-3.6196,-3.6216,-3.6212,-3.6233,-3.6235,-3.6232,-3.6287,-3.6296,-3.6329,-3.6269,-3.6425,-3.643,-3.6434,-3.6475,-3.6484,-3.6491,0,0,0,0,0,-3.6077,-3.6131,-3.6124,-3.6135,-3.6191,-3.6237,-3.6244,-3.6242,-3.6219,-3.6244,-3.6251,-3.6234,-3.632,-3.6293,-3.6303,-3.6337,-3.6423,-3.6428,-3.6433,-3.6471,-3.6482,-3.6491,0,0,0,0,0,0,-3.6109,-3.6134,-3.6126,-3.619,-3.6212,-3.6232,-3.6264,-3.6254,-3.6281,-3.6276,-3.6271,-3.6276,-3.6329,-3.6338,-3.6307,-3.6401,-3.6368,-3.6375,-3.6393,-3.6403,-3.6411,-3.6407,-3.6273,0,0,0,0,0,-3.6124,-3.6162,-3.6181,-3.6235,-3.6247,-3.6254,-3.6274,-3.6271,-3.6292,-3.6301,-3.6312,-3.6332,-3.6364,-3.6384,-3.6414,-3.6477,-3.648,-3.6505,-3.6513,-3.652,-3.6526,-3.6558,-3.6569,-3.6453,-3.6453,-3.6453,0,0,-3.6154,-3.6173,-3.6196,-3.6242,-3.6259,-3.6295,-3.6262,-3.6302,-3.6329,-3.6306,-3.6356,-3.6365,-3.6387,-3.6444,-3.647,-3.6454,-3.6559,-3.6527,-3.6532,-3.6534,-3.6565,-3.6576,-3.6586,-3.6456,-3.6456,-3.6455,0,0,-3.6228,-3.6247,-3.6293,-3.6312,-3.6338,-3.6343,-3.6354,-3.6377,-3.6383,-3.6433,-3.6417,-3.6448,-3.6503,-3.6519,-3.6534,-3.6615,-3.6599,-3.6625,-3.6667,-3.6699,-3.6708,-3.6716,-3.6743,-3.6753,-3.6631,-3.6631,-3.6631,0,-3.6261,-3.6318,-3.6318,-3.636,-3.638,-3.6364,-3.641,-3.6427,-3.6462,-3.6474,-3.6456,-3.6525,-3.6538,-3.6599,-3.6619,-3.6632,-3.6643,-3.6621,-3.6707,-3.6715,-3.6722,-3.6748,-3.6759,-3.6634,-3.6633,-3.6633,-3.6633,0,-3.6357,-3.6397,-3.6431,-3.6467,-3.6491,-3.6535,-3.6539,-3.6563,-3.6558,-3.6564,-3.6615,-3.6631,-3.6664,-3.6678,-3.6673,-3.6738,-3.6726,-3.6708,-3.6674,-3.6736,-3.676,-3.677,-3.6638,-3.6637,-3.6636,-3.6635,0,0,-3.645,-3.6487,-3.6499,-3.6515,-3.6544,-3.6574,-3.6616,-3.665,-3.667,-3.6694,-3.6728,-3.6776,-3.6759,-3.6776,-3.6773,-3.6801,-3.6862,-3.6779,-3.6779,-3.6792,-3.6933,-3.6945,-3.6957,-3.6853,-3.6855,-3.6857,-3.693,0,-3.6524,-3.6601,-3.6603,-3.6672,-3.6708,-3.6694,-3.6731,-3.6751,-3.6758,-3.6788,-3.6795,-3.6828,-3.6804,-3.6814,-3.6842,-3.6849,-3.689,-3.6844,-3.6882,-3.6884,-3.6875,-3.697,-3.6983,-3.7051,-3.694,-3.6941,-3.6943,0,-3.662,-3.665,-3.6724,-3.6748,-3.6763,-3.6796,-3.6827,-3.6857,-3.6879,-3.6882,-3.6903,-3.6895,-3.6936,-3.6903,-3.6959,-3.6927,-3.6943,-3.6949,-3.6952,-3.6953,-3.6915,-3.6971,-3.7073,-3.7083,-3.6958,-3.6957,-3.6955,0,-3.6678,-3.6737,-3.6789,-3.6803,-3.6833,-3.6856,-3.6869,-3.689,-3.691,-3.6937,-3.695,-3.698,-3.6996,-3.7019,-3.7019,-3.6995,-3.7075,-3.7042,-3.7076,-3.7076,-3.7092,-3.709,-3.7195,-3.7106,-3.7106,-3.7106,-3.7105,0,-3.676,-3.6804,-3.6815,-3.6847,-3.6896,-3.6897,-3.6946,-3.6956,-3.6975,-3.7007,-3.6997,-3.7026,-3.7026,-3.7055,-3.7055,-3.71,-3.7108,-3.711,-3.7109,-3.711,-3.7109,-3.7118,-3.7113,-3.7108,-3.7108,-3.7107,-3.7107,0,-3.6832,-3.6841,-3.6896,-3.6921,-3.6928,-3.6963,-3.6983,-3.7012,-3.7019,-3.7059,-3.7068,-3.7078,-3.7112,-3.7116,-3.7155,-3.7155,-3.7209,-3.7204,-3.7202,-3.72,-3.7234,-3.723,-3.7346,-3.7361,-3.7264,-3.7265,-3.7266,0,-3.6882,-3.6917,-3.6946,-3.6968,-3.6983,-3.7018,-3.7039,-3.7041,-3.7063,-3.7092,-3.7117,-3.7151,-3.7178,-3.7233,-3.7242,-3.7272,-3.7266,-3.7305,-3.727,-3.7269,-3.7264,-3.7261,-3.7263,-3.731,-3.7312,-3.7312,-3.7313,0,-3.6969,-3.6973,-3.7005,-3.7039,-3.7066,-3.7092,-3.7116,-3.7134,-3.7139,-3.7165,-3.7201,-3.7222,-3.7263,-3.7296,-3.7325,-3.7336,-3.7325,-3.7325,-3.7334,-3.7333,-3.733,-3.733,-3.7218,-3.7321,-3.732,-3.732,-3.7319,-3.7319,-3.703,-3.7061,-3.7086,-3.7122,-3.7142,-3.7165,-3.7194,-3.7205,-3.7236,-3.7271,-3.727,-3.731,-3.7331,-3.7369,-3.7383,-3.7412,-3.7399,-3.7412,-3.7415,-3.7418,-3.7421,-3.7328,-3.7418,-3.7417,-3.7417,-3.7417,-3.7417,0,-3.7116,-3.7132,-3.7166,-3.7202,-3.723,-3.722,-3.7247,-3.727,-3.7306,-3.7328,-3.7355,-3.7396,-3.7428,-3.7441,-3.7472,-3.7493,-3.7488,-3.75,-3.7497,-3.75,-3.7432,-3.742,-3.7503,-3.7503,-3.7503,-3.7503,-3.7503,-3.7503,-3.7163,-3.7213,-3.7219,-3.7278,-3.7294,-3.7334,-3.735,-3.7371,-3.7388,-3.7435,-3.7463,-3.7472,-3.749,-3.7522,-3.755,-3.7553,-3.7563,-3.7578,-3.7578,-3.7514,-3.7505,-3.7496,-3.7485,-3.7581,-3.7581,-3.7643,-3.7643,-3.7644]}]]